LEMUR-2-VU (43558 NORAD) Tracking and Keplerian Element Data

This shows tracking and keplerian element data for the satellite.

Feedback or suggestion? Click here.




ElementValue
Catalog43558
NameLEMUR-2-VU
Epoch Orbit4770
Epoch Day144.47914179
Epoch Year2019
RAAN176.8173
Inclination51.6417
Eccentricity0.0007746
Argument of Perigee344.571
Mean Anonmoly15.5033
Mean Motion15.29247718
Decay Rate9.57E-06
L11 43558U 18046E 19144.47914179 .00000957 00000-0 45722-4 0 9990
L22 43558 51.6417 176.8173 0007746 344.5710 15.5033 15.29247718 47703

Live tracking and technical data element details for LEMUR-2-VU (NORAD 43558). LEMUR-2-VU can be tracked NOW for your location showing map with azimuth and elevation plus other details from your city location.

Track the satellite on the map from your city or location and see movement details for azimuth, elevation, latitude, longitude, range, height, and movement on the map or in text.







IsCatalogInMostPopularTable: catalog: 43558, numindb: 121
Update: records affected: 1



GetName: 43558 LEMUR-2-VU

Hit Count: updated at: Fri, 24 May 2019 21:02:39 GMT